Location: Tel Aviv
(32.0670°N, 34.7670°E)
Time: 02:40:37
(UTC+02:00)

Transit 4A - Pass Details

Date: 10 December 2023
Orbit: 869 x 974 km, 66.8° (Epoch: 23 February)

Event Time Altitude Azimuth Distance (km) Brightness Sun altitude
Exits shadow 04:06:19 82° 93° (E) 906 7.8 -29.7°
Drops below altitude 10° 04:12:01 10° 153° (SSE) 2,525 10.6 -28.5°
Sets 04:14:28 0° 154° (SSE) 3,452 11.4 -28.0°
